GW3496 Weather Reports


time (UTC)temp
C
wind
direction
speed
KPH
gust
KPH
rain 1hr
cm
rain 24hr
cm
rain mn
cm
humidity
%
barometer
mb
20260508073056 10 284 4.8 9.7 0.00 0.03 0.00 82 1011.3
20260508071543 10 286 4.8 12.9 0.00 0.03 0.00 85 1011.2
20260508070048 9 17 8.0 14.5 0.00 0.03 0.00 88 1011.0
20260508064601 9 288 6.4 14.5 0.00 0.03 0.00 89 1010.9
20260508063051 10 286 8.0 16.1 0.00 0.03 0.00 89 1010.6
20260508061532 10 300 8.0 17.7 0.00 0.03 0.00 89 1010.3
20260508060027 10 290 9.7 16.1 0.00 0.03 0.00 88 1010.3
20260508054530 10 313 6.4 14.5 0.00 0.08 0.00 88 1010.3
20260508053028 10 281 3.2 6.4 0.00 0.08 0.00 87 1010.3
20260508051528 10 313 0.0 0.0 0.00 0.08 0.00 87 1010.4
20260508050034 10 267 0.0 4.8 0.00 0.08 0.00 86 1010.2
20260508044528 10 286 0.0 6.4 0.00 0.10 0.00 86 1009.7
20260508043032 11 254 0.0 8.0 0.00 0.10 0.00 85 1009.4
20260508041528 11 248 1.6 11.3 0.00 0.10 0.00 85 1009.6
20260508040033 11 254 9.7 14.5 0.00 0.10 0.00 84 1009.4
20260508034529 11 265 4.8 12.9 0.00 0.10 0.10 84 1009.4
20260508033028 11 275 4.8 9.7 0.00 0.10 0.10 83 1009.3
20260508031530 11 248 0.0 0.0 0.00 0.10 0.10 82 1009.3
20260508030028 11 184 0.0 0.0 0.00 0.10 0.10 81 1009.2
20260508024529 12 165 4.8 6.4 0.00 0.10 0.10 81 1009.2
20260508023035 12 190 3.2 8.0 0.00 0.10 0.10 80 1009.3
20260508021528 12 247 3.2 8.0 0.00 0.10 0.10 79 1009.3
20260508020028 12 252 4.8 12.9 0.00 0.10 0.10 79 1009.2
20260508014533 12 236 6.4 12.9 0.00 0.10 0.10 77 1008.8
20260508013031 12 211 1.6 9.7 0.00 0.10 0.10 76 1008.7
20260508011544 12 169 4.8 11.3 0.00 0.10 0.10 75 1008.5
20260508010033 12 243 4.8 8.0 0.00 0.10 0.10 74 1008.5
20260508004535 12 230 3.2 9.7 0.00 0.10 0.10 74 1008.4
20260508003036 13 246 6.4 8.0 0.00 0.10 0.10 72 1008.2
20260508001533 13 237 4.8 9.7 0.00 0.10 0.10 72 1008.3
20260508000034 13 227 4.8 11.3 0.00 0.10 0.10 72 1008.1
20260507234530 13 147 8.0 12.9 0.00 0.10 0.10 71 1008.0
20260507233028 13 215 8.0 16.1 0.00 0.10 0.10 71 1007.7
20260507231529 14 202 11.3 16.1 0.00 0.10 0.10 70 1007.3
20260507230029 15 234 9.7 20.9 0.00 0.10 0.10 69 1007.3
20260507224528 15 189 4.8 16.1 0.00 0.10 0.10 70 1007.4
20260507223028 15 141 9.7 19.3 0.00 0.10 0.10 68 1007.3
20260507221530 15 173 9.7 17.7 0.00 0.10 0.10 68 1007.4
20260507220031 15 190 9.7 19.3 0.00 0.10 0.10 68 1007.2
20260507214531 15 139 6.4 16.1 0.00 0.10 0.10 68 1007.2
20260507213033 14 188 6.4 14.5 0.00 0.10 0.10 68 1007.2
20260507211528 14 150 9.7 20.9 0.00 0.10 0.10 67 1007.4
20260507210031 14 170 8.0 17.7 0.00 0.10 0.10 67 1007.3
20260507204529 13 209 8.0 19.3 0.00 0.10 0.10 67 1007.3
20260507203030 14 162 11.3 20.9 0.00 0.10 0.10 63 1007.4
20260507201531 13 103 9.7 20.9 0.00 0.10 0.10 66 1007.5
20260507200037 13 146 9.7 14.5 0.00 0.10 0.10 65 1007.4
20260507194533 13 165 6.4 16.1 0.00 0.10 0.10 64 1007.6
20260507193033 13 212 8.0 14.5 0.00 0.10 0.10 66 1007.9
20260507191531 13 162 11.3 16.1 0.03 0.10 0.10 65 1007.6
20260507190037 13 141 11.3 19.3 0.03 0.10 0.10 69 1007.9
20260507184538 13 142 3.2 11.3 0.03 0.10 0.10 66 1008.1
20260507183030 13 101 1.6 9.7 0.03 0.10 0.10 60 1008.6
20260507181532 13 54 1.6 16.1 0.00 0.08 0.08 58 1008.9
20260507180034 13 76 4.8 14.5 0.00 0.08 0.08 54 1008.5
20260507174538 13 98 8.0 17.7 0.00 0.08 0.08 53 1009.0
20260507173035 13 75 6.4 16.1 0.00 0.08 0.08 56 1008.8
20260507171533 13 43 6.4 9.7 0.00 0.08 0.08 63 1009.0
20260507170034 13 348 6.4 14.5 0.00 0.08 0.08 60 1009.3
20260507164530 13 71 4.8 9.7 0.00 0.08 0.08 61 1009.3
20260507163033 12 17 4.8 11.3 0.00 0.08 0.08 62 1010.0
20260507161530 13 319 0.0 11.3 0.00 0.08 0.08 66 1009.7
20260507160037 13 24 6.4 14.5 0.00 0.08 0.08 64 1009.4
20260507154537 13 58 4.8 14.5 0.00 0.08 0.08 63 1010.0
20260507153033 13 14 8.0 19.3 0.00 0.08 0.08 62 1009.6
20260507151531 13 36 8.0 17.7 0.00 0.08 0.08 64 1009.8
20260507150032 13 316 6.4 17.7 0.00 0.08 0.08 67 1009.7
20260507144531 13 26 8.0 19.3 0.00 0.28 0.08 69 1010.1
20260507143029 13 355 6.4 17.7 0.00 0.28 0.08 70 1010.5
20260507141530 13 37 4.8 14.5 0.00 0.28 0.08 72 1010.6
20260507140052 13 28 6.4 22.5 0.00 0.28 0.08 72 1010.5
20260507134533 13 323 6.4 19.3 0.00 0.30 0.08 72 1010.3
20260507133032 13 57 9.7 19.3 0.00 0.30 0.08 71 1010.2
20260507131536 13 31 8.0 20.9 0.00 0.30 0.08 71 1010.2
20260507130031 13 11 8.0 22.5 0.00 0.30 0.08 74 1010.3
20260507124530 13 46 11.3 17.7 0.00 0.30 0.08 76 1010.4
20260507123038 13 22 9.7 22.5 0.00 0.30 0.08 76 1010.1
20260507121540 13 59 4.8 20.9 0.00 0.30 0.08 79 1009.9
20260507120032 12 80 9.7 17.7 0.00 0.30 0.08 81 1009.6
20260507114533 12 59 8.0 17.7 0.00 0.30 0.08 82 1009.8
20260507113038 12 88 3.2 17.7 0.00 0.30 0.08 83 1009.6
20260507111532 12 360 6.4 11.3 0.00 0.30 0.08 83 1009.5
20260507110038 12 346 6.4 16.1 0.00 0.30 0.08 84 1009.7
20260507104536 12 311 6.4 14.5 0.00 0.30 0.08 84 1009.4
20260507103032 12 46 4.8 9.7 0.00 0.30 0.08 84 1009.1
20260507101539 12 49 4.8 14.5 0.00 0.30 0.08 83 1009.1
20260507100037 12 55 6.4 9.7 0.00 0.30 0.08 83 1009.1
20260507094533 12 333 4.8 14.5 0.00 0.30 0.08 84 1009.1
20260507093041 12 32 6.4 12.9 0.00 0.30 0.08 85 1009.0
20260507091533 12 337 4.8 11.3 0.00 0.30 0.08 86 1009.2
20260507090034 12 346 6.4 17.7 0.00 0.30 0.08 86 1008.8
20260507084536 13 66 8.0 16.1 0.00 0.30 0.08 88 1008.7
20260507083038 13 64 8.0 14.5 0.00 0.30 0.08 89 1008.8
20260507081534 13 115 3.2 8.0 0.00 0.30 0.08 90 1009.1
20260507080047 13 355 6.4 16.1 0.00 0.30 0.08 89 1008.7
20260507074535 13 44 4.8 11.3 0.00 0.30 0.08 89 1008.3